Sion Airport LSGS

Flugplatz Daten

Name: Sion Airport

Ident: LSGS

Lat: 46,21960068

Long: 7,326759815

Platzhöhe: 1585 ft

IataCode: SIR

City: Sion

Homepage: http://www.sionairport.ch

Metar

2021/10/25 19:20
LSGS 251920Z AUTO VRB01KT CAVOK 09/02 Q1022

Taf

Gewünschte Webcam nicht vorhanden? Dann fügen Sie eine hinzu. Sie wird dann so schnell wie möglich freigeschaltet
Url: Title: